{"data":{"norad_id":64105,"intl_designator":"2025-110K","name":"STARLINK-33949","alt_names":[],"object_type":"PAYLOAD","status":"ACTIVE","operator":null,"country":"US","launch_date":"2025-05-23","launch_site_code":"AFWTR","launch_vehicle":null,"mission":null,"orbit_class":"UNKNOWN","rcs_meters":null,"size_class":null,"mass_kg":null,"dimensions":null,"purposes":["comms"],"wikipedia_slug":null,"has_3d_model":false,"image_url":null,"decayed_at":null,"tle_current":{"epoch":"2026-09-20T11:20:49.201152Z","epoch_age_seconds":146044,"freshness":"FRESH","line1":"1 64105U 25110K   26263.47279168  .00011550  00000+0  38311-3 0  9998","line2":"2 64105  53.1558 200.6712 0002055  82.6166 277.5069 15.31721338 75725","mean_motion":15.31721338,"eccentricity":0.0002055,"inclination_deg":53.1558,"raan_deg":200.6712,"arg_perigee_deg":82.6166,"mean_anomaly_deg":277.5069,"bstar":0.00038311,"rev_number":7572,"period_min":94.01187828853,"perigee_km":469.26895734507,"apogee_km":472.08381964774,"semimajor_km":6848.8133884964,"source":"CELESTRAK","updated_at":"2026-09-21T09:00:35.228307Z"}}}